Time,TemperatureF,DewpointF,PressureIn,WindDirection,WindDirectionDegrees,WindSpeedMPH,WindSpeedGustMPH,Humidity,HourlyPrecipIn,Conditions,Clouds,dailyrainin,SoftwareType,DateUTC
2013-05-21 00:01:00,59.2,53.7,29.68,NNE,15,0.0,-999.0,82,0.00,,,0.00,WeatherSnoop3.0,2013-05-21 05:01:00,
2013-05-21 00:06:00,59.1,53.6,29.69,NNE,15,0.0,-999.0,82,0.00,,,0.00,WeatherSnoop3.0,2013-05-21 05:06:00,
2013-05-21 00:11:00,59.0,53.5,29.69,NNE,15,0.0,-999.0,82,0.00,,,0.00,WeatherSnoop3.0,2013-05-21 05:11:00,
2013-05-21 00:16:00,59.1,52.9,29.69,NNE,32,1.0,-999.0,80,0.00,,,0.00,WeatherSnoop3.0,2013-05-21 05:16:00,
2013-05-21 00:21:00,59.3,52.8,29.69,NE,44,0.0,-999.0,79,0.00,,,0.00,WeatherSnoop3.0,2013-05-21 05:21:00,
2013-05-21 00:26:00,59.2,53.0,29.69,NE,44,0.0,-999.0,80,0.00,,,0.00,WeatherSnoop3.0,2013-05-21 05:26:00,
2013-05-21 00:31:00,58.8,53.0,29.69,East,86,0.0,-999.0,81,0.00,,,0.00,WeatherSnoop3.0,2013-05-21 05:31:00,
2013-05-21 00:36:00,58.6,52.4,29.69,ENE,65,0.0,-999.0,80,0.00,,,0.00,WeatherSnoop3.0,2013-05-21 05:36:00,
2013-05-21 00:41:00,58.4,52.6,29.70,SW,228,0.0,-999.0,81,0.00,,,0.00,WeatherSnoop3.0,2013-05-21 05:41:00,
2013-05-21 00:46:00,58.1,52.3,29.70,South,190,0.0,-999.0,81,0.00,,,0.00,WeatherSnoop3.0,2013-05-21 05:46:00,
2013-05-21 00:51:00,57.8,52.0,29.70,South,191,0.0,-999.0,81,0.00,,,0.00,WeatherSnoop3.0,2013-05-21 05:51:00,
2013-05-21 00:56:00,57.4,51.9,29.70,NNW,344,0.0,-999.0,82,0.00,,,0.00,WeatherSnoop3.0,2013-05-21 05:56:00,
2013-05-21 01:01:00,57.4,51.6,29.70,North,350,0.0,-999.0,81,0.00,,,0.00,WeatherSnoop3.0,2013-05-21 06:01:00,
2013-05-21 01:06:00,57.3,51.5,29.70,North,349,0.0,-999.0,81,0.00,,,0.00,WeatherSnoop3.0,2013-05-21 06:06:00,
2013-05-21 01:11:00,57.4,51.3,29.70,ENE,63,0.0,-999.0,80,0.00,,,0.00,WeatherSnoop3.0,2013-05-21 06:11:00,
2013-05-21 01:16:00,57.6,50.4,29.70,NNE,12,1.0,-999.0,77,0.00,,,0.00,WeatherSnoop3.0,2013-05-21 06:16:00,
2013-05-21 01:21:00,58.0,50.8,29.70,NE,44,0.0,-999.0,77,0.00,,,0.00,WeatherSnoop3.0,2013-05-21 06:21:00,
2013-05-21 01:26:00,58.1,50.6,29.70,NNE,16,0.0,-999.0,76,0.00,,,0.00,WeatherSnoop3.0,2013-05-21 06:26:00,
2013-05-21 01:31:00,57.9,50.7,29.71,North,357,0.0,-999.0,77,0.00,,,0.00,WeatherSnoop3.0,2013-05-21 06:31:00,
2013-05-21 01:36:00,57.6,50.8,29.71,NE,44,0.0,-999.0,78,0.00,,,0.00,WeatherSnoop3.0,2013-05-21 06:36:00,
2013-05-21 01:41:00,57.3,50.5,29.71,NE,44,0.0,-999.0,78,0.00,,,0.00,WeatherSnoop3.0,2013-05-21 06:41:00,
2013-05-21 01:46:00,56.9,50.5,29.71,NE,44,0.0,-999.0,79,0.00,,,0.00,WeatherSnoop3.0,2013-05-21 06:46:00,
2013-05-21 01:51:00,56.5,50.4,29.70,NNE,32,0.0,-999.0,80,0.00,,,0.00,WeatherSnoop3.0,2013-05-21 06:51:00,
2013-05-21 01:56:00,56.1,50.3,29.70,NNE,32,0.0,-999.0,81,0.00,,,0.00,WeatherSnoop3.0,2013-05-21 06:56:00,
2013-05-21 02:01:00,55.7,50.3,29.70,NNE,32,0.0,-999.0,82,0.00,,,0.00,WeatherSnoop3.0,2013-05-21 07:01:00,
2013-05-21 02:06:00,55.3,50.2,29.70,NNE,32,0.0,-999.0,83,0.00,,,0.00,WeatherSnoop3.0,2013-05-21 07:06:00,
2013-05-21 02:11:00,54.9,50.2,29.70,NNE,32,0.0,-999.0,84,0.00,,,0.00,WeatherSnoop3.0,2013-05-21 07:11:00,
2013-05-21 02:16:00,54.7,50.0,29.71,NNE,32,0.0,-999.0,84,0.00,,,0.00,WeatherSnoop3.0,2013-05-21 07:16:00,
2013-05-21 02:21:00,54.6,49.9,29.70,NNE,29,0.0,-999.0,84,0.00,,,0.00,WeatherSnoop3.0,2013-05-21 07:21:00,
2013-05-21 02:26:00,54.4,50.0,29.70,NNE,28,0.0,-999.0,85,0.00,,,0.00,WeatherSnoop3.0,2013-05-21 07:26:00,
2013-05-21 02:31:00,54.2,50.1,29.70,NNE,29,0.0,-999.0,86,0.00,,,0.00,WeatherSnoop3.0,2013-05-21 07:31:00,
2013-05-21 02:36:00,53.9,49.8,29.70,NNE,29,0.0,-999.0,86,0.00,,,0.00,WeatherSnoop3.0,2013-05-21 07:36:00,
2013-05-21 02:41:00,53.9,49.8,29.69,NW,315,0.0,-999.0,86,0.00,,,0.00,WeatherSnoop3.0,2013-05-21 07:41:00,
2013-05-21 02:46:00,53.8,49.7,29.69,NW,321,0.0,-999.0,86,0.00,,,0.00,WeatherSnoop3.0,2013-05-21 07:46:00,
2013-05-21 02:51:00,53.7,49.6,29.69,NW,316,0.0,-999.0,86,0.00,,,0.00,WeatherSnoop3.0,2013-05-21 07:51:00,
2013-05-21 02:56:00,53.7,49.6,29.69,WNW,289,0.0,-999.0,86,0.00,,,0.00,WeatherSnoop3.0,2013-05-21 07:56:00,
2013-05-21 03:01:00,53.6,49.5,29.69,West,278,0.0,-999.0,86,0.00,,,0.00,WeatherSnoop3.0,2013-05-21 08:01:00,
2013-05-21 03:06:00,53.4,49.3,29.68,West,278,0.0,-999.0,86,0.00,,,0.00,WeatherSnoop3.0,2013-05-21 08:06:00,
2013-05-21 03:11:00,53.3,49.2,29.68,WNW,282,0.0,-999.0,86,0.00,,,0.00,WeatherSnoop3.0,2013-05-21 08:11:00,
2013-05-21 03:16:00,53.6,49.5,29.68,West,267,0.0,-999.0,86,0.00,,,0.00,WeatherSnoop3.0,2013-05-21 08:16:00,
2013-05-21 03:21:00,53.7,49.3,29.68,NNW,335,0.0,-999.0,85,0.00,,,0.00,WeatherSnoop3.0,2013-05-21 08:21:00,
2013-05-21 03:26:00,53.9,49.5,29.67,North,4,1.0,-999.0,85,0.00,,,0.00,WeatherSnoop3.0,2013-05-21 08:26:00,
2013-05-21 03:31:00,54.0,49.6,29.67,SSW,193,0.0,-999.0,85,0.00,,,0.00,WeatherSnoop3.0,2013-05-21 08:31:00,
2013-05-21 03:36:00,54.1,49.7,29.68,SSW,195,0.0,-999.0,85,0.00,,,0.00,WeatherSnoop3.0,2013-05-21 08:36:00,
2013-05-21 03:41:00,54.1,49.7,29.68,SSW,198,0.0,-999.0,85,0.00,,,0.00,WeatherSnoop3.0,2013-05-21 08:41:00,
2013-05-21 03:46:00,54.1,49.7,29.68,SSW,208,0.0,-999.0,85,0.00,,,0.00,WeatherSnoop3.0,2013-05-21 08:46:00,
2013-05-21 03:51:00,54.0,49.6,29.68,SSW,208,0.0,-999.0,85,0.00,,,0.00,WeatherSnoop3.0,2013-05-21 08:51:00,
2013-05-21 03:56:00,53.7,49.6,29.69,West,274,0.0,-999.0,86,0.00,,,0.00,WeatherSnoop3.0,2013-05-21 08:56:00,
2013-05-21 04:01:00,53.4,49.6,29.69,West,274,0.0,-999.0,87,0.00,,,0.00,WeatherSnoop3.0,2013-05-21 09:01:00,
2013-05-21 04:06:00,53.2,49.4,29.68,NW,326,0.0,-999.0,87,0.00,,,0.00,WeatherSnoop3.0,2013-05-21 09:06:00,
2013-05-21 04:11:00,53.1,49.3,29.68,NW,326,0.0,-999.0,87,0.00,,,0.00,WeatherSnoop3.0,2013-05-21 09:11:00,
2013-05-21 04:16:00,53.0,49.5,29.69,NW,320,0.0,-999.0,88,0.00,,,0.00,WeatherSnoop3.0,2013-05-21 09:16:00,
2013-05-21 04:21:00,52.9,49.4,29.69,NW,321,0.0,-999.0,88,0.00,,,0.00,WeatherSnoop3.0,2013-05-21 09:21:00,
2013-05-21 04:26:00,52.7,49.5,29.69,West,281,0.0,-999.0,89,0.00,,,0.00,WeatherSnoop3.0,2013-05-21 09:26:00,
2013-05-21 04:31:00,52.7,49.5,29.69,West,270,0.0,-999.0,89,0.00,,,0.00,WeatherSnoop3.0,2013-05-21 09:31:00,
2013-05-21 04:36:00,52.7,49.2,29.69,West,270,0.0,-999.0,88,0.00,,,0.00,WeatherSnoop3.0,2013-05-21 09:36:00,
2013-05-21 04:41:00,52.4,49.0,29.69,West,270,0.0,-999.0,88,0.00,,,0.00,WeatherSnoop3.0,2013-05-21 09:41:00,
2013-05-21 04:46:00,52.2,49.1,29.69,West,276,0.0,-999.0,89,0.00,,,0.00,WeatherSnoop3.0,2013-05-21 09:46:00,
2013-05-21 04:51:00,52.2,49.1,29.69,West,276,0.0,-999.0,89,0.00,,,0.00,WeatherSnoop3.0,2013-05-21 09:51:00,
2013-05-21 04:56:00,52.4,49.3,29.69,West,269,0.0,-999.0,89,0.00,,,0.00,WeatherSnoop3.0,2013-05-21 09:56:00,
2013-05-21 05:01:00,52.4,49.0,29.70,West,271,1.0,-999.0,88,0.00,,,0.00,WeatherSnoop3.0,2013-05-21 10:01:00,
2013-05-21 05:06:00,52.3,49.2,29.70,West,276,0.0,-999.0,89,0.00,,,0.00,WeatherSnoop3.0,2013-05-21 10:06:00,
2013-05-21 05:11:00,52.2,49.1,29.70,West,276,0.0,-999.0,89,0.00,,,0.00,WeatherSnoop3.0,2013-05-21 10:11:00,
2013-05-21 05:16:00,52.2,49.1,29.70,WNW,283,0.0,-999.0,89,0.00,,,0.00,WeatherSnoop3.0,2013-05-21 10:16:00,
2013-05-21 05:21:00,52.4,49.3,29.70,West,273,0.0,-999.0,89,0.00,,,0.00,WeatherSnoop3.0,2013-05-21 10:21:00,
2013-05-21 05:26:00,52.5,49.0,29.70,West,271,0.0,-999.0,88,0.00,,,0.00,WeatherSnoop3.0,2013-05-21 10:26:00,
2013-05-21 05:31:00,52.4,49.0,29.70,West,271,0.0,-999.0,88,0.00,,,0.00,WeatherSnoop3.0,2013-05-21 10:31:00,
2013-05-21 05:36:00,52.2,49.1,29.70,West,271,0.0,-999.0,89,0.00,,,0.00,WeatherSnoop3.0,2013-05-21 10:36:00,
2013-05-21 05:41:00,52.0,48.9,29.69,West,271,0.0,-999.0,89,0.00,,,0.00,WeatherSnoop3.0,2013-05-21 10:41:00,
2013-05-21 05:46:00,51.8,49.0,29.70,West,271,0.0,-999.0,90,0.00,,,0.00,WeatherSnoop3.0,2013-05-21 10:46:00,
2013-05-21 05:51:00,51.7,48.9,29.70,West,271,0.0,-999.0,90,0.00,,,0.00,WeatherSnoop3.0,2013-05-21 10:51:00,
2013-05-21 05:56:00,51.6,48.8,29.70,SSW,207,0.0,-999.0,90,0.00,,,0.00,WeatherSnoop3.0,2013-05-21 10:56:00,
2013-05-21 06:01:00,51.7,48.9,29.71,SW,229,0.0,-999.0,90,0.00,,,0.00,WeatherSnoop3.0,2013-05-21 11:01:00,
2013-05-21 06:06:00,51.6,48.8,29.70,SW,222,0.0,-999.0,90,0.00,,,0.00,WeatherSnoop3.0,2013-05-21 11:06:00,
2013-05-21 06:11:00,51.4,48.6,29.70,SW,222,0.0,-999.0,90,0.00,,,0.00,WeatherSnoop3.0,2013-05-21 11:11:00,
2013-05-21 06:16:00,51.5,48.7,29.70,WSW,242,0.0,-999.0,90,0.00,,,0.00,WeatherSnoop3.0,2013-05-21 11:16:00,
2013-05-21 06:21:00,51.6,48.5,29.69,WNW,293,0.0,-999.0,89,0.00,,,0.00,WeatherSnoop3.0,2013-05-21 11:21:00,
2013-05-21 06:26:00,51.8,48.7,29.69,NNW,347,0.0,-999.0,89,0.00,,,0.00,WeatherSnoop3.0,2013-05-21 11:26:00,
2013-05-21 06:31:00,52.0,48.6,29.69,NE,44,0.0,-999.0,88,0.00,,,0.00,WeatherSnoop3.0,2013-05-21 11:31:00,
2013-05-21 06:36:00,52.2,48.4,29.70,ESE,115,0.0,-999.0,87,0.00,,,0.00,WeatherSnoop3.0,2013-05-21 11:36:00,
2013-05-21 06:41:00,52.4,48.6,29.70,WSW,250,0.0,-999.0,87,0.00,,,0.00,WeatherSnoop3.0,2013-05-21 11:41:00,
2013-05-21 06:46:00,52.5,48.7,29.70,West,273,0.0,-999.0,87,0.00,,,0.00,WeatherSnoop3.0,2013-05-21 11:46:00,
2013-05-21 06:51:00,52.7,48.9,29.71,NNW,329,0.0,-999.0,87,0.00,,,0.00,WeatherSnoop3.0,2013-05-21 11:51:00,
2013-05-21 06:56:00,53.1,49.0,29.71,WNW,285,0.0,-999.0,86,0.00,,,0.00,WeatherSnoop3.0,2013-05-21 11:56:00,
2013-05-21 07:01:00,53.4,49.3,29.71,West,276,0.0,-999.0,86,0.00,,,0.00,WeatherSnoop3.0,2013-05-21 12:01:00,
2013-05-21 07:06:00,53.7,49.6,29.72,West,266,0.0,-999.0,86,0.00,,,0.00,WeatherSnoop3.0,2013-05-21 12:06:00,
2013-05-21 07:11:00,54.1,49.7,29.72,WNW,288,0.0,-999.0,85,0.00,,,0.00,WeatherSnoop3.0,2013-05-21 12:11:00,
2013-05-21 07:16:00,54.3,49.6,29.72,West,266,0.0,-999.0,84,0.00,,,0.00,WeatherSnoop3.0,2013-05-21 12:16:00,
2013-05-21 07:21:00,54.5,49.8,29.73,West,266,0.0,-999.0,84,0.00,,,0.00,WeatherSnoop3.0,2013-05-21 12:21:00,
2013-05-21 07:26:00,54.9,50.2,29.73,NW,308,0.0,-999.0,84,0.00,,,0.00,WeatherSnoop3.0,2013-05-21 12:26:00,
2013-05-21 07:31:00,55.5,50.4,29.73,ESE,104,0.0,-999.0,83,0.00,,,0.00,WeatherSnoop3.0,2013-05-21 12:31:00,
2013-05-21 07:36:00,55.8,50.7,29.73,NNW,337,0.0,-999.0,83,0.00,,,0.00,WeatherSnoop3.0,2013-05-21 12:36:00,
2013-05-21 07:41:00,56.1,50.3,29.73,West,281,0.0,-999.0,81,0.00,,,0.00,WeatherSnoop3.0,2013-05-21 12:41:00,
2013-05-21 07:46:00,56.3,50.5,29.73,NE,41,0.0,-999.0,81,0.00,,,0.00,WeatherSnoop3.0,2013-05-21 12:46:00,
2013-05-21 07:51:00,56.6,50.8,29.73,NW,322,1.0,-999.0,81,0.00,,,0.00,WeatherSnoop3.0,2013-05-21 12:51:00,
2013-05-21 07:56:00,56.9,50.8,29.73,NE,46,1.0,-999.0,80,0.00,,,0.00,WeatherSnoop3.0,2013-05-21 12:56:00,
2013-05-21 08:01:00,57.2,50.7,29.72,NE,53,0.0,-999.0,79,0.00,,,0.00,WeatherSnoop3.0,2013-05-21 13:01:00,
2013-05-21 08:06:00,57.4,50.9,29.72,WSW,248,0.0,-999.0,79,0.00,,,0.00,WeatherSnoop3.0,2013-05-21 13:06:00,
2013-05-21 08:11:00,57.6,50.8,29.73,NNE,32,0.0,-999.0,78,0.00,,,0.00,WeatherSnoop3.0,2013-05-21 13:11:00,
2013-05-21 08:16:00,57.9,50.7,29.73,West,277,0.0,-999.0,77,0.00,,,0.00,WeatherSnoop3.0,2013-05-21 13:16:00,
2013-05-21 08:21:00,58.2,51.0,29.73,NNW,337,1.0,-999.0,77,0.00,,,0.00,WeatherSnoop3.0,2013-05-21 13:21:00,
2013-05-21 08:26:00,58.7,50.8,29.72,WNW,302,0.0,-999.0,75,0.00,,,0.00,WeatherSnoop3.0,2013-05-21 13:26:00,
2013-05-21 08:31:00,58.8,51.3,29.72,WNW,293,1.0,-999.0,76,0.00,,,0.00,WeatherSnoop3.0,2013-05-21 13:31:00,
2013-05-21 08:36:00,59.1,50.8,29.72,ENE,74,0.0,-999.0,74,0.00,,,0.00,WeatherSnoop3.0,2013-05-21 13:36:00,
2013-05-21 08:41:00,59.4,51.8,29.72,WSW,255,1.0,-999.0,76,0.00,,,0.00,WeatherSnoop3.0,2013-05-21 13:41:00,
2013-05-21 08:46:00,60.0,51.3,29.73,NE,41,1.0,-999.0,73,0.00,,,0.00,WeatherSnoop3.0,2013-05-21 13:46:00,
2013-05-21 08:51:00,60.3,51.6,29.73,North,11,3.0,-999.0,73,0.00,,,0.00,WeatherSnoop3.0,2013-05-21 13:51:00,
2013-05-21 08:56:00,60.8,52.1,29.73,WNW,295,1.0,-999.0,73,0.00,,,0.00,WeatherSnoop3.0,2013-05-21 13:56:00,
2013-05-21 09:01:00,61.4,51.5,29.72,NNE,30,2.0,-999.0,70,0.00,,,0.00,WeatherSnoop3.0,2013-05-21 14:01:00,
2013-05-21 09:06:00,61.5,52.4,29.72,NNE,28,3.0,-999.0,72,0.00,,,0.00,WeatherSnoop3.0,2013-05-21 14:06:00,
2013-05-21 09:11:00,62.0,52.1,29.72,NNE,32,3.0,-999.0,70,0.00,,,0.00,WeatherSnoop3.0,2013-05-21 14:11:00,
2013-05-21 09:16:00,62.1,52.2,29.72,East,84,3.0,-999.0,70,0.00,,,0.00,WeatherSnoop3.0,2013-05-21 14:16:00,
2013-05-21 09:21:00,62.5,51.8,29.72,North,4,2.0,-999.0,68,0.00,,,0.00,WeatherSnoop3.0,2013-05-21 14:21:00,
2013-05-21 09:26:00,63.0,52.7,29.72,ENE,61,1.0,-999.0,69,0.00,,,0.00,WeatherSnoop3.0,2013-05-21 14:26:00,
2013-05-21 09:31:00,63.3,53.3,29.72,East,82,2.0,-999.0,70,0.00,,,0.00,WeatherSnoop3.0,2013-05-21 14:31:00,
2013-05-21 09:36:00,63.4,52.2,29.72,NNE,30,1.0,-999.0,67,0.00,,,0.00,WeatherSnoop3.0,2013-05-21 14:36:00,
2013-05-21 09:41:00,64.2,53.0,29.72,NNE,29,2.0,-999.0,67,0.00,,,0.00,WeatherSnoop3.0,2013-05-21 14:41:00,
2013-05-21 09:46:00,64.2,53.4,29.71,North,4,6.0,-999.0,68,0.00,,,0.00,WeatherSnoop3.0,2013-05-21 14:46:00,
2013-05-21 09:51:00,64.4,53.6,29.71,NNE,28,1.0,-999.0,68,0.00,,,0.00,WeatherSnoop3.0,2013-05-21 14:51:00,
2013-05-21 09:56:00,64.5,52.9,29.70,North,354,4.0,-999.0,66,0.00,,,0.00,WeatherSnoop3.0,2013-05-21 14:56:00,
2013-05-21 10:01:00,64.7,53.5,29.71,NNW,328,1.0,-999.0,67,0.00,,,0.00,WeatherSnoop3.0,2013-05-21 15:01:00,
2013-05-21 10:06:00,65.0,52.9,29.71,WNW,302,2.0,-999.0,65,0.00,,,0.00,WeatherSnoop3.0,2013-05-21 15:06:00,
2013-05-21 10:11:00,65.1,52.6,29.72,NE,35,6.0,-999.0,64,0.00,,,0.00,WeatherSnoop3.0,2013-05-21 15:11:00,
2013-05-21 10:16:00,65.0,52.9,29.72,SE,138,4.0,-999.0,65,0.00,,,0.00,WeatherSnoop3.0,2013-05-21 15:16:00,
2013-05-21 10:21:00,64.9,53.3,29.72,NE,50,1.0,-999.0,66,0.00,,,0.00,WeatherSnoop3.0,2013-05-21 15:21:00,
2013-05-21 10:26:00,65.2,53.1,29.72,West,277,3.0,-999.0,65,0.00,,,0.00,WeatherSnoop3.0,2013-05-21 15:26:00,
2013-05-21 10:31:00,65.7,54.0,29.73,NNE,15,3.0,-999.0,66,0.00,,,0.00,WeatherSnoop3.0,2013-05-21 15:31:00,
2013-05-21 10:36:00,65.7,51.9,29.73,NNW,347,1.0,-999.0,61,0.00,,,0.00,WeatherSnoop3.0,2013-05-21 15:36:00,
2013-05-21 10:42:00,65.8,52.4,29.72,NW,325,2.0,-999.0,62,0.00,,,0.00,WeatherSnoop3.0,2013-05-21 15:42:00,
2013-05-21 10:47:00,66.1,53.1,29.72,North,360,3.0,-999.0,63,0.00,,,0.00,WeatherSnoop3.0,2013-05-21 15:47:00,
2013-05-21 10:52:00,66.3,52.9,29.72,NNE,18,7.0,-999.0,62,0.00,,,0.00,WeatherSnoop3.0,2013-05-21 15:52:00,
2013-05-21 10:57:00,66.5,53.1,29.72,NE,43,0.0,-999.0,62,0.00,,,0.00,WeatherSnoop3.0,2013-05-21 15:57:00,
2013-05-21 11:02:00,66.6,53.2,29.72,NNE,22,5.0,-999.0,62,0.00,,,0.00,WeatherSnoop3.0,2013-05-21 16:02:00,
2013-05-21 11:07:00,67.1,55.4,29.72,NNE,30,5.0,-999.0,66,0.00,,,0.00,WeatherSnoop3.0,2013-05-21 16:07:00,
2013-05-21 11:12:00,67.1,53.6,29.72,ENE,60,2.0,-999.0,62,0.00,,,0.00,WeatherSnoop3.0,2013-05-21 16:12:00,
2013-05-21 11:17:00,67.4,52.6,29.71,NE,44,5.0,-999.0,59,0.00,,,0.00,WeatherSnoop3.0,2013-05-21 16:17:00,
2013-05-21 11:22:00,67.2,52.4,29.72,West,281,2.0,-999.0,59,0.00,,,0.00,WeatherSnoop3.0,2013-05-21 16:22:00,
2013-05-21 11:27:00,67.7,53.3,29.72,NE,39,4.0,-999.0,60,0.00,,,0.00,WeatherSnoop3.0,2013-05-21 16:27:00,
2013-05-21 11:32:00,68.3,52.9,29.73,NNW,343,2.0,-999.0,58,0.00,,,0.00,WeatherSnoop3.0,2013-05-21 16:32:00,
2013-05-21 11:37:00,68.5,53.6,29.72,NE,41,3.0,-999.0,59,0.00,,,0.00,WeatherSnoop3.0,2013-05-21 16:37:00,
2013-05-21 11:42:00,68.4,52.6,29.73,NE,36,0.0,-999.0,57,0.00,,,0.00,WeatherSnoop3.0,2013-05-21 16:42:00,
2013-05-21 11:47:00,68.6,51.8,29.72,NNE,27,6.0,-999.0,55,0.00,,,0.00,WeatherSnoop3.0,2013-05-21 16:47:00,
2013-05-21 11:52:00,68.3,52.0,29.72,NNW,338,1.0,-999.0,56,0.00,,,0.00,WeatherSnoop3.0,2013-05-21 16:52:00,
2013-05-21 11:57:00,68.3,52.9,29.71,ENE,61,4.0,-999.0,58,0.00,,,0.00,WeatherSnoop3.0,2013-05-21 16:57:00,
2013-05-21 12:02:00,68.6,52.3,29.71,East,89,2.0,-999.0,56,0.00,,,0.00,WeatherSnoop3.0,2013-05-21 17:02:00,
2013-05-21 12:07:00,68.9,52.1,29.71,NE,36,5.0,-999.0,55,0.00,,,0.00,WeatherSnoop3.0,2013-05-21 17:07:00,
2013-05-21 12:12:00,69.0,51.7,29.72,NNE,26,2.0,-999.0,54,0.00,,,0.00,WeatherSnoop3.0,2013-05-21 17:12:00,
2013-05-21 12:17:00,69.4,53.0,29.72,NE,39,1.0,-999.0,56,0.00,,,0.00,WeatherSnoop3.0,2013-05-21 17:17:00,
2013-05-21 12:22:00,68.6,51.8,29.72,ENE,71,3.0,-999.0,55,0.00,,,0.00,WeatherSnoop3.0,2013-05-21 17:22:00,
2013-05-21 12:27:00,68.3,52.9,29.72,North,357,0.0,-999.0,58,0.00,,,0.00,WeatherSnoop3.0,2013-05-21 17:27:00,
2013-05-21 12:32:00,68.7,51.9,29.73,NNW,336,3.0,-999.0,55,0.00,,,0.00,WeatherSnoop3.0,2013-05-21 17:32:00,
2013-05-21 12:37:00,68.9,51.6,29.73,NE,50,2.0,-999.0,54,0.00,,,0.00,WeatherSnoop3.0,2013-05-21 17:37:00,
2013-05-21 12:42:00,69.1,51.7,29.73,NE,34,1.0,-999.0,54,0.00,,,0.00,WeatherSnoop3.0,2013-05-21 17:42:00,
2013-05-21 12:47:00,70.1,52.2,29.73,ENE,67,0.0,-999.0,53,0.00,,,0.00,WeatherSnoop3.0,2013-05-21 17:47:00,
2013-05-21 12:52:00,71.0,50.9,29.73,NE,39,3.0,-999.0,49,0.00,,,0.00,WeatherSnoop3.0,2013-05-21 17:52:00,
2013-05-21 12:57:00,70.4,50.9,29.73,WNW,291,0.0,-999.0,50,0.00,,,0.00,WeatherSnoop3.0,2013-05-21 17:57:00,
2013-05-21 13:02:00,70.3,52.3,29.74,ENE,57,0.0,-999.0,53,0.00,,,0.00,WeatherSnoop3.0,2013-05-21 18:02:00,
2013-05-21 13:07:00,71.0,53.0,29.74,East,92,2.0,-999.0,53,0.00,,,0.00,WeatherSnoop3.0,2013-05-21 18:07:00,
2013-05-21 13:12:00,71.1,52.6,29.74,SW,226,0.0,-999.0,52,0.00,,,0.00,WeatherSnoop3.0,2013-05-21 18:12:00,
2013-05-21 13:17:00,71.5,52.9,29.74,WSW,240,0.0,-999.0,52,0.00,,,0.00,WeatherSnoop3.0,2013-05-21 18:17:00,
2013-05-21 13:22:00,71.6,53.6,29.74,WNW,284,1.0,-999.0,53,0.00,,,0.00,WeatherSnoop3.0,2013-05-21 18:22:00,
2013-05-21 13:27:00,71.7,55.2,29.74,West,267,0.0,-999.0,56,0.00,,,0.00,WeatherSnoop3.0,2013-05-21 18:27:00,
2013-05-21 13:32:00,71.5,53.5,29.75,WSW,237,1.0,-999.0,53,0.00,,,0.00,WeatherSnoop3.0,2013-05-21 18:32:00,
2013-05-21 13:37:00,70.7,52.7,29.75,SSW,209,6.0,-999.0,53,0.00,,,0.00,WeatherSnoop3.0,2013-05-21 18:37:00,
2013-05-21 13:42:00,70.0,53.6,29.75,West,277,0.0,-999.0,56,0.00,,,0.00,WeatherSnoop3.0,2013-05-21 18:42:00,
2013-05-21 13:47:00,70.1,53.7,29.74,SW,232,0.0,-999.0,56,0.00,,,0.00,WeatherSnoop3.0,2013-05-21 18:47:00,
2013-05-21 13:52:00,70.1,53.7,29.75,SSW,208,2.0,-999.0,56,0.00,,,0.00,WeatherSnoop3.0,2013-05-21 18:52:00,
2013-05-21 13:57:00,69.9,50.9,29.74,SSW,205,2.0,-999.0,51,0.00,,,0.00,WeatherSnoop3.0,2013-05-21 18:57:00,
2013-05-21 14:02:00,70.1,54.6,29.74,West,278,0.0,-999.0,58,0.00,,,0.00,WeatherSnoop3.0,2013-05-21 19:02:00,
2013-05-21 14:07:00,70.3,54.3,29.74,SW,231,4.0,-999.0,57,0.00,,,0.00,WeatherSnoop3.0,2013-05-21 19:07:00,
2013-05-21 14:12:00,69.9,53.0,29.75,SW,233,2.0,-999.0,55,0.00,,,0.00,WeatherSnoop3.0,2013-05-21 19:12:00,
2013-05-21 14:17:00,69.8,53.4,29.74,West,269,1.0,-999.0,56,0.00,,,0.00,WeatherSnoop3.0,2013-05-21 19:17:00,
2013-05-21 14:22:00,69.9,52.0,29.74,West,262,1.0,-999.0,53,0.00,,,0.00,WeatherSnoop3.0,2013-05-21 19:22:00,
2013-05-21 14:27:00,70.1,51.6,29.73,SW,221,1.0,-999.0,52,0.00,,,0.00,WeatherSnoop3.0,2013-05-21 19:27:00,
2013-05-21 14:32:00,70.4,53.9,29.72,NNE,15,0.0,-999.0,56,0.00,,,0.00,WeatherSnoop3.0,2013-05-21 19:32:00,
2013-05-21 14:37:00,71.1,52.0,29.70,WSW,245,1.0,-999.0,51,0.00,,,0.00,WeatherSnoop3.0,2013-05-21 19:37:00,
2013-05-21 14:42:00,71.7,53.1,29.69,West,264,1.0,-999.0,52,0.00,,,0.00,WeatherSnoop3.0,2013-05-21 19:42:00,
2013-05-21 14:47:00,72.0,51.8,29.69,WSW,250,1.0,-999.0,49,0.00,,,0.00,WeatherSnoop3.0,2013-05-21 19:47:00,
2013-05-21 14:52:00,72.1,53.5,29.69,West,266,0.0,-999.0,52,0.00,,,0.00,WeatherSnoop3.0,2013-05-21 19:52:00,
2013-05-21 14:57:00,71.5,49.6,29.67,WNW,284,3.0,-999.0,46,0.00,,,0.00,WeatherSnoop3.0,2013-05-21 19:57:00,
2013-05-21 15:02:00,71.0,50.3,29.66,NE,46,2.0,-999.0,48,0.00,,,0.00,WeatherSnoop3.0,2013-05-21 20:02:00,
2013-05-21 15:07:00,70.7,50.6,29.66,ENE,68,0.0,-999.0,49,0.00,,,0.00,WeatherSnoop3.0,2013-05-21 20:07:00,
2013-05-21 15:12:00,70.5,53.5,29.66,ENE,70,0.0,-999.0,55,0.00,,,0.00,WeatherSnoop3.0,2013-05-21 20:12:00,
2013-05-21 15:17:00,70.3,50.2,29.66,NE,52,2.0,-999.0,49,0.00,,,0.00,WeatherSnoop3.0,2013-05-21 20:17:00,
2013-05-21 15:22:00,69.9,49.9,29.67,ESE,121,0.0,-999.0,49,0.00,,,0.00,WeatherSnoop3.0,2013-05-21 20:22:00,
2013-05-21 15:27:00,69.9,50.9,29.67,WSW,250,0.0,-999.0,51,0.00,,,0.00,WeatherSnoop3.0,2013-05-21 20:27:00,
2013-05-21 15:32:00,70.0,52.1,29.68,WNW,290,0.0,-999.0,53,0.00,,,0.00,WeatherSnoop3.0,2013-05-21 20:32:00,
2013-05-21 15:37:00,70.2,52.3,29.68,West,259,0.0,-999.0,53,0.00,,,0.00,WeatherSnoop3.0,2013-05-21 20:37:00,
2013-05-21 15:42:00,70.2,51.7,29.67,West,274,0.0,-999.0,52,0.00,,,0.00,WeatherSnoop3.0,2013-05-21 20:42:00,
2013-05-21 15:47:00,70.3,54.3,29.67,NW,311,0.0,-999.0,57,0.00,,,0.00,WeatherSnoop3.0,2013-05-21 20:47:00,
2013-05-21 15:52:00,70.7,52.2,29.67,SW,215,0.0,-999.0,52,0.00,,,0.00,WeatherSnoop3.0,2013-05-21 20:52:00,
2013-05-21 15:57:00,71.2,53.2,29.68,WSW,245,0.0,-999.0,53,0.00,,,0.00,WeatherSnoop3.0,2013-05-21 20:57:00,
2013-05-21 16:02:00,71.5,54.0,29.67,NNW,330,2.0,-999.0,54,0.00,,,0.00,WeatherSnoop3.0,2013-05-21 21:02:00,
2013-05-21 16:07:00,71.4,51.2,29.67,North,360,2.0,-999.0,49,0.00,,,0.00,WeatherSnoop3.0,2013-05-21 21:07:00,
2013-05-21 16:12:00,71.4,52.8,29.66,NNE,12,2.0,-999.0,52,0.00,,,0.00,WeatherSnoop3.0,2013-05-21 21:12:00,
2013-05-21 16:17:00,71.5,51.3,29.66,NNW,346,0.0,-999.0,49,0.00,,,0.00,WeatherSnoop3.0,2013-05-21 21:17:00,
2013-05-21 16:22:00,71.6,51.4,29.66,ENE,60,0.0,-999.0,49,0.00,,,0.00,WeatherSnoop3.0,2013-05-21 21:22:00,
2013-05-21 16:27:00,71.8,49.9,29.65,NE,50,2.0,-999.0,46,0.00,,,0.00,WeatherSnoop3.0,2013-05-21 21:27:00,
2013-05-21 16:32:00,71.8,51.6,29.65,ENE,70,1.0,-999.0,49,0.00,,,0.00,WeatherSnoop3.0,2013-05-21 21:32:00,
2013-05-21 16:37:00,72.2,50.3,29.65,SSE,158,0.0,-999.0,46,0.00,,,0.00,WeatherSnoop3.0,2013-05-21 21:37:00,
2013-05-21 16:42:00,72.7,50.7,29.65,NNE,32,0.0,-999.0,46,0.00,,,0.00,WeatherSnoop3.0,2013-05-21 21:42:00,
2013-05-21 16:47:00,73.3,55.1,29.65,WSW,242,0.0,-999.0,53,0.00,,,0.00,WeatherSnoop3.0,2013-05-21 21:47:00,
2013-05-21 16:52:00,74.1,55.9,29.65,West,259,0.0,-999.0,53,0.00,,,0.00,WeatherSnoop3.0,2013-05-21 21:52:00,
2013-05-21 16:57:00,74.3,52.2,29.64,West,269,1.0,-999.0,46,0.00,,,0.00,WeatherSnoop3.0,2013-05-21 21:57:00,
2013-05-21 17:02:00,74.4,51.7,29.64,West,266,0.0,-999.0,45,0.00,,,0.00,WeatherSnoop3.0,2013-05-21 22:02:00,
2013-05-21 17:07:00,74.1,50.8,29.63,West,259,1.0,-999.0,44,0.00,,,0.00,WeatherSnoop3.0,2013-05-21 22:07:00,
2013-05-21 17:12:00,73.8,49.9,29.62,WSW,242,1.0,-999.0,43,0.00,,,0.00,WeatherSnoop3.0,2013-05-21 22:12:00,
2013-05-21 17:17:00,74.1,52.6,29.63,WSW,253,0.0,-999.0,47,0.00,,,0.00,WeatherSnoop3.0,2013-05-21 22:17:00,
2013-05-21 17:22:00,74.2,50.9,29.63,WSW,238,3.0,-999.0,44,0.00,,,0.00,WeatherSnoop3.0,2013-05-21 22:22:00,
2013-05-21 17:27:00,74.0,51.3,29.64,WSW,253,1.0,-999.0,45,0.00,,,0.00,WeatherSnoop3.0,2013-05-21 22:27:00,
2013-05-21 17:32:00,74.0,49.4,29.64,SW,224,0.0,-999.0,42,0.00,,,0.00,WeatherSnoop3.0,2013-05-21 22:32:00,
2013-05-21 17:37:00,74.1,48.2,29.63,SW,226,0.0,-999.0,40,0.00,,,0.00,WeatherSnoop3.0,2013-05-21 22:37:00,
2013-05-21 17:42:00,74.3,49.1,29.64,WSW,253,0.0,-999.0,41,0.00,,,0.00,WeatherSnoop3.0,2013-05-21 22:42:00,
2013-05-21 17:47:00,74.4,49.2,29.64,SW,229,0.0,-999.0,41,0.00,,,0.00,WeatherSnoop3.0,2013-05-21 22:47:00,
2013-05-21 17:52:00,74.6,50.0,29.63,NNE,20,0.0,-999.0,42,0.00,,,0.00,WeatherSnoop3.0,2013-05-21 22:52:00,
2013-05-21 17:57:00,74.4,50.4,29.63,WSW,241,3.0,-999.0,43,0.00,,,0.00,WeatherSnoop3.0,2013-05-21 22:57:00,
2013-05-21 18:02:00,74.0,51.3,29.63,WSW,250,0.0,-999.0,45,0.00,,,0.00,WeatherSnoop3.0,2013-05-21 23:02:00,
2013-05-21 18:07:00,73.9,48.7,29.63,SW,221,0.0,-999.0,41,0.00,,,0.00,WeatherSnoop3.0,2013-05-21 23:07:00,
2013-05-21 18:12:00,74.2,51.5,29.63,SSW,200,0.0,-999.0,45,0.00,,,0.00,WeatherSnoop3.0,2013-05-21 23:12:00,
2013-05-21 18:17:00,74.6,50.6,29.62,NNW,327,0.0,-999.0,43,0.00,,,0.00,WeatherSnoop3.0,2013-05-21 23:17:00,
2013-05-21 18:22:00,74.6,50.0,29.62,NE,39,0.0,-999.0,42,0.00,,,0.00,WeatherSnoop3.0,2013-05-21 23:22:00,
2013-05-21 18:27:00,74.0,50.1,29.62,WNW,293,0.0,-999.0,43,0.00,,,0.00,WeatherSnoop3.0,2013-05-21 23:27:00,
2013-05-21 18:32:00,74.4,51.7,29.62,ENE,76,0.0,-999.0,45,0.00,,,0.00,WeatherSnoop3.0,2013-05-21 23:32:00,
2013-05-21 18:37:00,74.9,51.5,29.62,West,262,0.0,-999.0,44,0.00,,,0.00,WeatherSnoop3.0,2013-05-21 23:37:00,
2013-05-21 18:42:00,74.5,51.7,29.62,West,264,0.0,-999.0,45,0.00,,,0.00,WeatherSnoop3.0,2013-05-21 23:42:00,
2013-05-21 18:47:00,74.8,51.4,29.62,West,264,0.0,-999.0,44,0.00,,,0.00,WeatherSnoop3.0,2013-05-21 23:47:00,
2013-05-21 18:52:00,74.9,51.5,29.63,West,264,0.0,-999.0,44,0.00,,,0.00,WeatherSnoop3.0,2013-05-21 23:52:00,
2013-05-21 18:57:00,75.0,51.6,29.62,West,262,0.0,-999.0,44,0.00,,,0.00,WeatherSnoop3.0,2013-05-21 23:57:00,
2013-05-21 19:02:00,75.5,52.0,29.63,West,259,0.0,-999.0,44,0.00,,,0.00,WeatherSnoop3.0,2013-05-22 00:02:00,
2013-05-21 19:07:00,75.5,52.7,29.62,WSW,240,0.0,-999.0,45,0.00,,,0.00,WeatherSnoop3.0,2013-05-22 00:07:00,
2013-05-21 19:12:00,75.3,51.9,29.62,WSW,239,0.0,-999.0,44,0.00,,,0.00,WeatherSnoop3.0,2013-05-22 00:12:00,
2013-05-21 19:17:00,74.3,51.0,29.62,ESE,102,0.0,-999.0,44,0.00,,,0.00,WeatherSnoop3.0,2013-05-22 00:17:00,
2013-05-21 19:22:00,73.3,50.1,29.62,ESE,102,0.0,-999.0,44,0.00,,,0.00,WeatherSnoop3.0,2013-05-22 00:22:00,
2013-05-21 19:27:00,72.7,51.3,29.62,ESE,104,0.0,-999.0,47,0.00,,,0.00,WeatherSnoop3.0,2013-05-22 00:27:00,
2013-05-21 19:32:00,72.1,50.7,29.62,SSW,205,0.0,-999.0,47,0.00,,,0.00,WeatherSnoop3.0,2013-05-22 00:32:00,
2013-05-21 19:37:00,71.6,51.4,29.62,SSW,205,0.0,-999.0,49,0.00,,,0.00,WeatherSnoop3.0,2013-05-22 00:37:00,
2013-05-21 19:42:00,70.7,51.1,29.63,SW,231,0.0,-999.0,50,0.00,,,0.00,WeatherSnoop3.0,2013-05-22 00:42:00,
2013-05-21 19:47:00,70.0,52.6,29.63,SW,231,0.0,-999.0,54,0.00,,,0.00,WeatherSnoop3.0,2013-05-22 00:47:00,
2013-05-21 19:52:00,69.4,52.5,29.63,SW,231,0.0,-999.0,55,0.00,,,0.00,WeatherSnoop3.0,2013-05-22 00:52:00,
2013-05-21 19:57:00,68.8,52.5,29.63,SW,231,0.0,-999.0,56,0.00,,,0.00,WeatherSnoop3.0,2013-05-22 00:57:00,
2013-05-21 20:02:00,68.3,52.9,29.63,SW,231,0.0,-999.0,58,0.00,,,0.00,WeatherSnoop3.0,2013-05-22 01:02:00,
2013-05-21 20:07:00,67.8,52.5,29.64,SW,215,0.0,-999.0,58,0.00,,,0.00,WeatherSnoop3.0,2013-05-22 01:07:00,
2013-05-21 20:12:00,67.4,52.6,29.64,SW,215,0.0,-999.0,59,0.00,,,0.00,WeatherSnoop3.0,2013-05-22 01:12:00,
2013-05-21 20:17:00,67.0,51.7,29.64,SW,215,0.0,-999.0,58,0.00,,,0.00,WeatherSnoop3.0,2013-05-22 01:17:00,
2013-05-21 20:22:00,66.6,53.6,29.64,SW,215,0.0,-999.0,63,0.00,,,0.00,WeatherSnoop3.0,2013-05-22 01:22:00,
2013-05-21 20:27:00,65.9,54.6,29.64,SW,215,0.0,-999.0,67,0.00,,,0.00,WeatherSnoop3.0,2013-05-22 01:27:00,
2013-05-21 20:32:00,65.1,53.0,29.64,SW,215,0.0,-999.0,65,0.00,,,0.00,WeatherSnoop3.0,2013-05-22 01:32:00,
2013-05-21 20:37:00,64.6,53.0,29.65,SW,215,0.0,-999.0,66,0.00,,,0.00,WeatherSnoop3.0,2013-05-22 01:37:00,
2013-05-21 20:42:00,64.3,53.9,29.65,South,190,0.0,-999.0,69,0.00,,,0.00,WeatherSnoop3.0,2013-05-22 01:42:00,
2013-05-21 20:47:00,63.8,53.8,29.65,SSE,153,0.0,-999.0,70,0.00,,,0.00,WeatherSnoop3.0,2013-05-22 01:47:00,
2013-05-21 20:52:00,63.3,53.0,29.65,SSE,153,0.0,-999.0,69,0.00,,,0.00,WeatherSnoop3.0,2013-05-22 01:52:00,
2013-05-21 20:58:00,62.9,52.6,29.65,SSE,153,0.0,-999.0,69,0.00,,,0.00,WeatherSnoop3.0,2013-05-22 01:58:00,
2013-05-21 21:04:00,62.5,53.3,29.65,SSE,153,0.0,-999.0,72,0.00,,,0.00,WeatherSnoop3.0,2013-05-22 02:04:00,
2013-05-21 21:10:00,62.4,52.9,29.65,South,190,0.0,-999.0,71,0.00,,,0.00,WeatherSnoop3.0,2013-05-22 02:10:00,
2013-05-21 21:16:00,62.2,52.3,29.66,SSW,210,0.0,-999.0,70,0.00,,,0.00,WeatherSnoop3.0,2013-05-22 02:16:00,
2013-05-21 21:21:00,62.2,53.1,29.66,SW,219,0.0,-999.0,72,0.00,,,0.00,WeatherSnoop3.0,2013-05-22 02:21:00,
2013-05-21 21:26:00,61.7,53.0,29.66,SW,219,0.0,-999.0,73,0.00,,,0.00,WeatherSnoop3.0,2013-05-22 02:26:00,
2013-05-21 21:31:00,61.1,52.7,29.66,SW,219,0.0,-999.0,74,0.00,,,0.00,WeatherSnoop3.0,2013-05-22 02:31:00,
2013-05-21 21:36:00,60.8,53.2,29.67,SW,219,0.0,-999.0,76,0.00,,,0.00,WeatherSnoop3.0,2013-05-22 02:36:00,
2013-05-21 21:41:00,60.4,52.8,29.67,SW,222,0.0,-999.0,76,0.00,,,0.00,WeatherSnoop3.0,2013-05-22 02:41:00,
2013-05-21 21:46:00,60.3,52.3,29.67,SW,222,0.0,-999.0,75,0.00,,,0.00,WeatherSnoop3.0,2013-05-22 02:46:00,
2013-05-21 21:51:00,60.3,52.7,29.67,SW,222,0.0,-999.0,76,0.00,,,0.00,WeatherSnoop3.0,2013-05-22 02:51:00,
2013-05-21 21:56:00,60.4,52.8,29.67,SW,221,0.0,-999.0,76,0.00,,,0.00,WeatherSnoop3.0,2013-05-22 02:56:00,
2013-05-21 22:01:00,60.2,52.2,29.68,SW,222,0.0,-999.0,75,0.00,,,0.00,WeatherSnoop3.0,2013-05-22 03:01:00,
2013-05-21 22:06:00,59.8,52.9,29.68,SW,222,0.0,-999.0,78,0.00,,,0.00,WeatherSnoop3.0,2013-05-22 03:06:00,
2013-05-21 22:11:00,59.1,52.6,29.68,SW,221,0.0,-999.0,79,0.00,,,0.00,WeatherSnoop3.0,2013-05-22 03:11:00,
2013-05-21 22:16:00,58.7,52.5,29.67,SW,221,0.0,-999.0,80,0.00,,,0.00,WeatherSnoop3.0,2013-05-22 03:16:00,
2013-05-21 22:21:00,58.4,52.6,29.68,SW,221,0.0,-999.0,81,0.00,,,0.00,WeatherSnoop3.0,2013-05-22 03:21:00,
2013-05-21 22:26:00,58.2,52.4,29.68,SW,222,0.0,-999.0,81,0.00,,,0.00,WeatherSnoop3.0,2013-05-22 03:26:00,
2013-05-21 22:31:00,58.2,52.4,29.69,SW,221,0.0,-999.0,81,0.00,,,0.00,WeatherSnoop3.0,2013-05-22 03:31:00,
2013-05-21 22:36:00,58.0,52.5,29.69,SW,222,0.0,-999.0,82,0.00,,,0.00,WeatherSnoop3.0,2013-05-22 03:36:00,
2013-05-21 22:41:00,57.7,52.2,29.69,SW,222,0.0,-999.0,82,0.00,,,0.00,WeatherSnoop3.0,2013-05-22 03:41:00,
2013-05-21 22:46:00,57.5,52.7,29.69,SW,222,0.0,-999.0,84,0.00,,,0.00,WeatherSnoop3.0,2013-05-22 03:46:00,
2013-05-21 22:51:00,57.4,52.3,29.70,SW,222,0.0,-999.0,83,0.00,,,0.00,WeatherSnoop3.0,2013-05-22 03:51:00,
2013-05-21 22:56:00,57.2,52.1,29.70,SW,221,0.0,-999.0,83,0.00,,,0.00,WeatherSnoop3.0,2013-05-22 03:56:00,
2013-05-21 23:01:00,57.1,51.7,29.69,SW,222,0.0,-999.0,82,0.00,,,0.00,WeatherSnoop3.0,2013-05-22 04:01:00,
2013-05-21 23:03:00,57.0,51.9,29.69,SW,222,0.0,-999.0,83,0.00,,,0.00,WeatherSnoop3.0,2013-05-22 04:03:00,
2013-05-21 23:05:00,56.9,51.8,29.70,SW,222,0.0,-999.0,83,0.00,,,0.00,WeatherSnoop3.0,2013-05-22 04:05:00,
2013-05-21 23:07:00,56.9,51.5,29.70,SW,222,0.0,-999.0,82,0.00,,,0.00,WeatherSnoop3.0,2013-05-22 04:07:00,
2013-05-21 23:12:00,56.7,51.9,29.70,SW,222,0.0,-999.0,84,0.00,,,0.00,WeatherSnoop3.0,2013-05-22 04:12:00,
2013-05-21 23:16:00,56.4,51.9,29.70,SW,222,0.0,-999.0,85,0.00,,,0.00,WeatherSnoop3.0,2013-05-22 04:16:00,
2013-05-21 23:21:00,56.0,51.9,29.70,SW,222,0.0,-999.0,86,0.00,,,0.00,WeatherSnoop3.0,2013-05-22 04:21:00,
2013-05-21 23:26:00,55.7,51.6,29.70,SW,222,0.0,-999.0,86,0.00,,,0.00,WeatherSnoop3.0,2013-05-22 04:26:00,
2013-05-21 23:31:00,55.4,51.6,29.70,SW,222,0.0,-999.0,87,0.00,,,0.00,WeatherSnoop3.0,2013-05-22 04:31:00,
2013-05-21 23:36:00,55.3,51.5,29.70,SW,222,0.0,-999.0,87,0.00,,,0.00,WeatherSnoop3.0,2013-05-22 04:36:00,
2013-05-21 23:41:00,55.1,51.6,29.70,SW,222,0.0,-999.0,88,0.00,,,0.00,WeatherSnoop3.0,2013-05-22 04:41:00,
2013-05-21 23:46:00,54.9,51.4,29.70,SW,222,0.0,-999.0,88,0.00,,,0.00,WeatherSnoop3.0,2013-05-22 04:46:00,
2013-05-21 23:51:00,54.9,51.1,29.70,SW,222,0.0,-999.0,87,0.00,,,0.00,WeatherSnoop3.0,2013-05-22 04:51:00,
2013-05-21 23:56:00,54.6,51.1,29.70,SW,222,0.0,-999.0,88,0.00,,,0.00,WeatherSnoop3.0,2013-05-22 04:56:00,